TimeCDT,TemperatureF,Dew PointF,Humidity,Sea Level PressureIn,VisibilityMPH,Wind Direction,Wind SpeedMPH,Gust SpeedMPH,PrecipitationIn,Events,Conditions,WindDirDegrees,DateUTC
12:15 AM,57.2,41.0,55,30.23,10.0,East,6.9,-,N/A,,Overcast,80,2012-10-11 05:15:00
12:55 AM,57.2,41.0,55,30.22,10.0,East,4.6,-,N/A,,Overcast,80,2012-10-11 05:55:00
1:15 AM,57.2,39.2,51,30.22,10.0,East,6.9,-,N/A,,Overcast,90,2012-10-11 06:15:00
1:35 AM,57.2,39.2,51,30.21,10.0,East,9.2,-,N/A,,Overcast,90,2012-10-11 06:35:00
1:56 AM,57.2,39.2,51,30.21,10.0,East,6.9,-,N/A,,Overcast,90,2012-10-11 06:56:00
2:15 AM,55.4,39.2,54,30.22,10.0,East,5.8,-,N/A,,Overcast,80,2012-10-11 07:15:00
2:56 AM,55.4,41.0,58,30.21,10.0,East,4.6,-,N/A,,Overcast,90,2012-10-11 07:56:00
3:15 AM,55.4,39.2,54,30.20,10.0,East,6.9,-,N/A,,Overcast,80,2012-10-11 08:15:00
3:35 AM,55.4,39.2,54,30.20,10.0,East,8.1,-,N/A,,Overcast,90,2012-10-11 08:35:00
4:15 AM,55.4,41.0,58,30.21,10.0,ENE,4.6,-,N/A,,Overcast,70,2012-10-11 09:15:00
4:35 AM,55.4,41.0,58,30.21,10.0,NE,4.6,-,N/A,,Overcast,50,2012-10-11 09:35:00
4:55 AM,55.4,41.0,58,30.22,10.0,ESE,4.6,-,N/A,,Overcast,120,2012-10-11 09:55:00
5:15 AM,55.4,41.0,58,30.22,10.0,East,4.6,-,N/A,,Overcast,100,2012-10-11 10:15:00
5:35 AM,55.4,41.0,58,30.22,10.0,ESE,6.9,-,N/A,,Overcast,110,2012-10-11 10:35:00
5:55 AM,55.4,41.0,58,30.22,10.0,East,6.9,-,N/A,,Overcast,100,2012-10-11 10:55:00
6:15 AM,55.4,41.0,58,30.23,10.0,East,5.8,-,N/A,,Overcast,90,2012-10-11 11:15:00
6:35 AM,55.4,41.0,58,30.23,10.0,ESE,4.6,-,N/A,,Overcast,110,2012-10-11 11:35:00
7:15 AM,55.4,41.0,58,30.23,10.0,East,5.8,-,N/A,,Overcast,100,2012-10-11 12:15:00
8:15 AM,57.2,42.8,59,30.24,10.0,ESE,8.1,-,N/A,,Overcast,120,2012-10-11 13:15:00
8:35 AM,57.2,42.8,59,30.25,10.0,ESE,5.8,-,N/A,,Overcast,110,2012-10-11 13:35:00
9:15 AM,57.2,42.8,59,30.25,10.0,East,5.8,-,N/A,,Overcast,100,2012-10-11 14:15:00
9:35 AM,57.2,44.6,63,30.25,10.0,East,6.9,-,N/A,,Overcast,90,2012-10-11 14:35:00
9:55 AM,57.2,44.6,63,30.26,5.0,East,4.6,-,N/A,,Overcast,100,2012-10-11 14:55:00
10:55 AM,57.2,46.4,67,30.27,10.0,NE,9.2,-,N/A,,Overcast,40,2012-10-11 15:55:00
11:15 AM,57.2,46.4,67,30.26,10.0,NE,9.2,-,N/A,,Overcast,50,2012-10-11 16:15:00
11:55 AM,60.8,50.0,68,30.25,10.0,East,10.4,-,N/A,,Overcast,80,2012-10-11 16:55:00
12:55 PM,62.6,48.2,59,30.23,10.0,SE,5.8,-,N/A,,Overcast,130,2012-10-11 17:55:00
1:15 PM,64.4,50.0,59,30.23,10.0,SE,3.5,-,N/A,,Overcast,130,2012-10-11 18:15:00
1:35 PM,64.4,51.8,64,30.21,10.0,SSE,5.8,-,N/A,,Overcast,150,2012-10-11 18:35:00
2:16 PM,69.8,53.6,56,30.19,10.0,ESE,4.6,-,N/A,,Overcast,120,2012-10-11 19:16:00
2:35 PM,69.8,53.6,56,30.20,10.0,East,3.5,-,N/A,,Mostly Cloudy,90,2012-10-11 19:35:00
2:55 PM,69.8,53.6,56,30.20,10.0,NNE,3.5,-,N/A,,Overcast,30,2012-10-11 19:55:00
3:55 PM,73.4,57.2,57,30.18,10.0,Calm,Calm,-,N/A,,Overcast,0,2012-10-11 20:55:00
4:15 PM,73.4,57.2,57,30.17,10.0,North,5.8,-,N/A,,Overcast,10,2012-10-11 21:15:00
4:36 PM,71.6,57.2,60,30.17,10.0,NNE,8.1,-,N/A,,Mostly Cloudy,20,2012-10-11 21:36:00
5:55 PM,69.8,55.4,60,30.16,10.0,NE,5.8,-,N/A,,Clear,50,2012-10-11 22:55:00
6:35 PM,66.2,55.4,68,30.17,10.0,NE,8.1,-,N/A,,Partly Cloudy,50,2012-10-11 23:35:00
6:55 PM,64.4,55.4,73,30.16,10.0,ENE,8.1,-,N/A,,Partly Cloudy,60,2012-10-11 23:55:00
7:15 PM,62.6,55.4,77,30.17,10.0,ENE,6.9,-,N/A,,Clear,60,2012-10-12 00:15:00
7:35 PM,64.4,55.4,73,30.16,10.0,ENE,8.1,-,N/A,,Clear,60,2012-10-12 00:35:00
8:15 PM,62.6,55.4,77,30.17,10.0,ENE,8.1,-,N/A,,Clear,70,2012-10-12 01:15:00
8:35 PM,62.6,55.4,77,30.17,10.0,East,6.9,-,N/A,,Clear,80,2012-10-12 01:35:00
9:15 PM,62.6,55.4,77,30.18,10.0,East,6.9,-,N/A,,Clear,90,2012-10-12 02:15:00
9:35 PM,60.8,55.4,82,30.18,10.0,East,4.6,-,N/A,,Clear,80,2012-10-12 02:35:00
9:55 PM,60.8,55.4,82,30.18,10.0,ESE,4.6,-,N/A,,Clear,110,2012-10-12 02:55:00
10:16 PM,60.8,55.4,82,30.18,10.0,East,5.8,-,N/A,,Clear,100,2012-10-12 03:16:00
10:55 PM,60.8,55.4,82,30.19,10.0,Calm,Calm,-,N/A,,Clear,0,2012-10-12 03:55:00
11:35 PM,60.8,55.4,82,30.18,10.0,Calm,Calm,-,N/A,,Clear,0,2012-10-12 04:35:00
11:55 PM,60.8,55.4,82,30.18,10.0,SE,3.5,-,N/A,,Clear,140,2012-10-12 04:55:00